contact:dominique.lefevre@mio.osupytheas.fr, maurice.libes@osupytheas.fr, didier.mallarino@osupytheas.fr
Project:EMSO http://www.emso-fr.org/EMSO-France
Depth: 2436.0 m
Title:EMSO Ligure Ouest : Data MII capteur AQUADOPP
Date,Latitude,Longitude,X_East,Y_North,Z_Up,Amplitude_X,Amplitude_Y,Amplitude_Z,Batterie,SoundSpeed,Heading,Pitch,Roll,Pressure,TIS,Speed,Direction
, degrees North, degrees East, m.s-1, m.s-1,m.s-1, 1, 1, 1, Volt, m.s-1, degree, degree, degree, dbar, degree_C, m.s-1, degree
2022-07-15T00:01:03,42.805,6.029,0.003,0.004,-0.025,104.0,104.0,101.0,13.3,1505.2,325.0,-0.8,1.8,2470.892,13.29,0.005,36.9
2022-07-15T00:04:02,42.805,6.029,-0.016,0.024,-0.032,105.0,104.0,101.0,13.4,1505.2,326.0,-0.8,1.8,2470.872,13.29,0.028,326.3
2022-07-15T00:07:02,42.805,6.029,-0.011,0.014,0.006,103.0,104.0,102.0,13.4,1505.2,329.0,-0.7,1.8,2470.894,13.29,0.017,321.8
2022-07-15T00:10:03,42.805,6.029,-0.015,0.028,-0.003,105.0,104.0,103.0,13.3,1505.2,327.0,-0.7,1.8,2470.877,13.29,0.031,331.8
2022-07-15T00:13:03,42.805,6.029,-0.011,0.03,-0.022,104.0,104.0,102.0,13.4,1505.2,328.4,-0.7,1.8,2470.858,13.29,0.031,339.9
2022-07-15T00:16:03,42.805,6.029,0.005,0.011,-0.023,105.0,104.0,102.0,13.3,1505.2,330.2,-0.8,1.8,2470.913,13.29,0.012,24.4
2022-07-15T00:19:03,42.805,6.029,0.014,0.008,-0.021,104.0,105.0,102.0,13.4,1505.2,326.8,-0.8,1.8,2470.856,13.29,0.016,60.3
2022-07-15T00:22:03,42.805,6.029,-0.003,0.027,0.009,105.0,104.0,102.0,13.4,1505.2,325.1,-0.8,1.8,2470.885,13.29,0.027,353.7
2022-07-15T00:25:03,42.805,6.029,0.0,0.01,-0.034,106.0,105.0,102.0,13.4,1505.2,326.4,-0.8,1.8,2470.838,13.29,0.01,0.0
2022-07-15T00:28:03,42.805,6.029,0.005,0.021,-0.023,106.0,105.0,101.0,13.4,1505.2,327.9,-0.7,1.8,2470.879,13.29,0.021,13.4
2022-07-15T00:31:03,42.805,6.029,0.008,0.039,0.008,105.0,105.0,102.0,13.4,1505.2,321.1,-0.7,1.8,2470.828,13.29,0.039,11.6
2022-07-15T00:34:03,42.805,6.029,-0.009,0.019,-0.001,103.0,106.0,100.0,13.4,1505.2,327.1,-0.8,1.9,2470.889,13.29,0.021,334.7
2022-07-15T00:37:02,42.805,6.029,-0.001,0.036,-0.011,105.0,103.0,101.0,13.4,1505.2,327.3,-0.7,1.8,2470.85,13.29,0.036,358.4
2022-07-15T00:40:03,42.805,6.029,0.008,0.015,-0.035,104.0,105.0,101.0,13.4,1505.2,328.7,-0.8,1.8,2470.844,13.29,0.017,28.1
2022-07-15T00:43:03,42.805,6.029,0.001,0.01,0.009,104.0,104.0,101.0,13.3,1505.2,320.8,-0.7,1.8,2470.856,13.29,0.01,5.7
2022-07-15T00:46:03,42.805,6.029,0.012,0.036,-0.014,104.0,104.0,102.0,13.3,1505.2,333.6,-0.8,1.8,2470.874,13.29,0.037,18.4
2022-07-15T00:49:03,42.805,6.029,-0.011,0.022,0.01,104.0,103.0,101.0,13.3,1505.2,321.8,-0.7,1.8,2470.867,13.29,0.024,333.4
2022-07-15T00:52:02,42.805,6.029,-0.001,0.021,0.001,104.0,105.0,102.0,13.4,1505.2,323.0,-0.8,1.8,2470.903,13.29,0.021,357.3
2022-07-15T00:55:03,42.805,6.029,-0.017,0.018,0.003,103.0,105.0,102.0,13.4,1505.2,333.1,-0.7,1.8,2470.814,13.29,0.024,316.6
2022-07-15T00:58:03,42.805,6.029,0.01,0.013,0.003,104.0,105.0,101.0,13.4,1505.2,328.2,-0.7,1.9,2470.864,13.29,0.016,37.6
2022-07-15T01:04:02,42.805,6.029,-0.025,0.011,-0.022,107.0,107.0,104.0,13.4,1505.2,326.4,-0.7,1.8,2470.857,13.29,0.027,293.7
2022-07-15T01:07:02,42.805,6.029,-0.01,0.004,-0.005,105.0,106.0,102.0,13.4,1505.2,326.8,-0.8,1.8,2470.871,13.29,0.01,291.8
2022-07-15T01:10:03,42.805,6.029,0.025,0.027,-0.014,105.0,105.0,101.0,13.3,1505.2,323.2,-0.8,1.8,2470.868,13.29,0.036,42.8
2022-07-15T01:13:03,42.805,6.029,-0.008,0.025,-0.031,107.0,105.0,101.0,13.4,1505.2,327.5,-0.8,1.8,2470.862,13.29,0.026,342.3
2022-07-15T01:16:03,42.805,6.029,0.0,0.031,0.015,105.0,105.0,102.0,13.4,1505.2,323.7,-0.8,1.9,2470.815,13.29,0.03,0.0
2022-07-15T01:19:03,42.805,6.029,0.017,0.036,-0.025,106.0,105.0,101.0,13.4,1505.2,333.9,-0.7,1.8,2470.826,13.29,0.039,25.3
2022-07-15T01:22:03,42.805,6.029,0.017,0.021,-0.032,103.0,105.0,103.0,13.3,1505.2,323.1,-0.7,1.8,2470.852,13.29,0.027,39.0
2022-07-15T01:25:03,42.805,6.029,0.0,0.024,0.004,104.0,105.0,103.0,13.4,1505.2,324.9,-0.7,1.8,2470.833,13.29,0.024,0.0
2022-07-15T01:28:03,42.805,6.029,0.007,0.036,0.013,106.0,104.0,103.0,13.3,1505.2,324.3,-0.8,1.8,2470.782,13.29,0.036,11.0
2022-07-15T01:31:03,42.805,6.029,0.018,0.018,-0.014,105.0,104.0,103.0,13.4,1505.2,323.7,-0.8,1.8,2470.823,13.29,0.025,45.0
2022-07-15T01:34:03,42.805,6.029,0.021,0.003,-0.036,106.0,105.0,102.0,13.3,1505.2,326.7,-0.7,1.8,2470.793,13.29,0.021,81.9
2022-07-15T01:37:03,42.805,6.029,-0.007,0.033,0.004,104.0,105.0,101.0,13.4,1505.2,319.0,-0.8,1.8,2470.846,13.29,0.033,348.0
2022-07-15T01:40:03,42.805,6.029,0.015,0.014,-0.035,105.0,105.0,102.0,13.4,1505.2,325.2,-0.7,1.8,2470.797,13.29,0.02,47.0
2022-07-15T01:43:03,42.805,6.029,-0.006,0.037,0.009,104.0,105.0,103.0,13.4,1505.2,330.6,-0.7,1.8,2470.804,13.29,0.037,350.8
2022-07-15T01:46:03,42.805,6.029,0.01,0.025,-0.02,104.0,106.0,102.0,13.4,1505.2,325.1,-0.7,1.8,2470.809,13.29,0.026,21.8
2022-07-15T01:49:03,42.805,6.029,0.003,0.019,-0.006,104.0,105.0,101.0,13.4,1505.2,330.0,-0.8,1.8,2470.821,13.29,0.019,9.0
2022-07-15T01:52:03,42.805,6.029,0.009,0.016,0.001,104.0,105.0,102.0,13.4,1505.2,326.0,-0.8,1.8,2470.798,13.29,0.018,29.4
2022-07-15T01:55:03,42.805,6.029,0.011,0.017,0.002,104.0,104.0,103.0,13.4,1505.2,329.4,-0.8,1.8,2470.758,13.29,0.02,32.9
2022-07-15T01:58:03,42.805,6.029,0.014,0.012,0.002,104.0,103.0,103.0,13.4,1505.2,329.3,-0.8,1.8,2470.837,13.29,0.018,49.4
2022-07-15T02:04:02,42.805,6.029,-0.012,0.023,0.0,105.0,105.0,102.0,13.3,1505.2,324.4,-0.8,1.8,2470.863,13.29,0.025,332.4
2022-07-15T02:07:03,42.805,6.029,-0.009,0.013,0.024,105.0,104.0,102.0,13.4,1505.2,328.6,-0.8,1.8,2470.806,13.29,0.015,325.3
2022-07-15T02:10:03,42.805,6.029,0.015,0.019,0.004,105.0,104.0,103.0,13.4,1505.2,323.2,-0.8,1.8,2470.783,13.29,0.024,38.3
2022-07-15T02:13:03,42.805,6.029,0.01,0.016,-0.025,105.0,104.0,104.0,13.4,1505.2,329.3,-0.8,1.8,2470.789,13.29,0.018,32.0
2022-07-15T02:16:03,42.805,6.029,-0.004,0.002,0.011,105.0,105.0,102.0,13.4,1505.2,333.1,-0.7,1.8,2470.791,13.29,0.004,296.6
2022-07-15T02:19:03,42.805,6.029,-0.008,0.031,-0.012,105.0,105.0,102.0,13.3,1505.2,326.9,-0.8,1.8,2470.779,13.29,0.032,345.5
2022-07-15T02:22:03,42.805,6.029,0.012,0.012,-0.018,105.0,105.0,102.0,13.4,1505.2,328.4,-0.8,1.8,2470.808,13.29,0.016,45.0
2022-07-15T02:25:03,42.805,6.029,0.008,0.001,0.002,105.0,104.0,103.0,13.3,1505.2,323.7,-0.7,1.8,2470.777,13.29,0.008,82.9
2022-07-15T02:28:03,42.805,6.029,0.0,0.018,-0.005,104.0,107.0,101.0,13.4,1505.2,332.0,-0.7,1.8,2470.79,13.29,0.018,0.0
2022-07-15T02:31:03,42.805,6.029,-0.001,0.037,0.015,106.0,105.0,102.0,13.4,1505.2,329.2,-0.7,1.8,2470.766,13.29,0.037,358.5
2022-07-15T02:34:03,42.805,6.029,0.011,0.036,0.003,105.0,105.0,102.0,13.4,1505.2,320.3,-0.7,1.8,2470.79,13.29,0.037,17.0
2022-07-15T02:37:03,42.805,6.029,0.014,0.027,-0.006,103.0,105.0,103.0,13.3,1505.2,321.1,-0.7,1.8,2470.81,13.29,0.03,27.4
2022-07-15T02:40:03,42.805,6.029,-0.01,0.023,0.001,106.0,105.0,103.0,13.4,1505.2,325.4,-0.7,1.8,2470.822,13.29,0.025,336.5
2022-07-15T02:43:03,42.805,6.029,0.02,0.009,0.034,105.0,106.0,102.0,13.4,1505.2,326.1,-0.8,1.8,2470.747,13.29,0.021,65.8
2022-07-15T02:46:03,42.805,6.029,0.016,0.012,-0.012,105.0,104.0,102.0,13.4,1505.2,328.7,-0.8,1.8,2470.75,13.29,0.02,53.1
2022-07-15T02:49:03,42.805,6.029,0.011,0.009,0.0,105.0,106.0,102.0,13.4,1505.2,322.4,-0.7,1.9,2470.777,13.29,0.014,50.7
2022-07-15T02:52:03,42.805,6.029,0.024,0.016,-0.013,105.0,105.0,102.0,13.3,1505.2,329.0,-0.8,1.8,2470.783,13.29,0.028,56.3
2022-07-15T02:55:03,42.805,6.029,0.01,0.011,0.0,105.0,105.0,102.0,13.3,1505.2,325.6,-0.8,1.8,2470.781,13.29,0.014,42.3
2022-07-15T02:58:03,42.805,6.029,-0.009,0.018,0.004,106.0,104.0,102.0,13.3,1505.2,324.5,-0.8,1.9,2470.724,13.29,0.02,333.4
2022-07-15T03:04:02,42.805,6.029,0.012,0.015,-0.029,105.0,105.0,101.0,13.4,1505.2,327.9,-0.8,1.8,2470.812,13.28,0.019,38.7
2022-07-15T03:07:02,42.805,6.029,0.018,0.027,0.015,106.0,104.0,102.0,13.4,1505.2,324.7,-0.7,1.8,2470.79,13.28,0.032,33.7
2022-07-15T03:10:03,42.805,6.029,0.008,0.009,-0.007,105.0,104.0,102.0,13.4,1505.2,324.3,-0.7,1.8,2470.777,13.29,0.012,41.6
2022-07-15T03:13:03,42.805,6.029,-0.001,0.017,0.002,105.0,105.0,102.0,13.4,1505.2,331.5,-0.7,1.8,2470.772,13.29,0.017,356.6
2022-07-15T03:16:03,42.805,6.029,0.007,0.017,-0.013,105.0,105.0,102.0,13.4,1505.2,322.8,-0.8,1.9,2470.809,13.29,0.018,22.4
2022-07-15T03:19:03,42.805,6.029,0.036,-0.002,-0.017,105.0,105.0,101.0,13.4,1505.2,326.9,-0.7,1.8,2470.766,13.29,0.036,93.2
2022-07-15T03:22:03,42.805,6.029,-0.003,0.008,-0.006,104.0,106.0,102.0,13.4,1505.2,323.3,-0.8,1.8,2470.797,13.29,0.008,339.4
2022-07-15T03:25:03,42.805,6.029,0.029,0.012,0.0,106.0,104.0,102.0,13.4,1505.2,332.0,-0.8,1.8,2470.771,13.29,0.031,67.5
2022-07-15T03:28:03,42.805,6.029,0.008,0.0,-0.022,107.0,107.0,101.0,13.3,1505.2,324.1,-0.8,1.8,2470.799,13.29,0.008,90.0
2022-07-15T03:31:03,42.805,6.029,0.029,0.009,0.002,105.0,105.0,102.0,13.4,1505.2,323.9,-0.8,1.8,2470.771,13.29,0.03,72.8
2022-07-15T03:34:03,42.805,6.029,0.016,-0.002,0.017,105.0,106.0,103.0,13.4,1505.2,332.9,-0.8,1.8,2470.734,13.29,0.016,97.1
2022-07-15T03:37:03,42.805,6.029,0.029,0.013,-0.008,105.0,106.0,102.0,13.3,1505.2,324.0,-0.8,1.8,2470.769,13.29,0.031,65.9
2022-07-15T03:40:03,42.805,6.029,0.024,0.012,-0.004,106.0,104.0,103.0,13.4,1505.2,322.4,-0.8,1.9,2470.741,13.29,0.026,63.4
2022-07-15T03:43:03,42.805,6.029,0.022,0.017,0.001,105.0,105.0,103.0,13.3,1505.2,320.4,-0.7,1.8,2470.732,13.29,0.027,52.3
2022-07-15T03:46:03,42.805,6.029,0.009,0.019,-0.019,106.0,103.0,102.0,13.4,1505.2,326.1,-0.7,1.8,2470.763,13.29,0.021,25.3
2022-07-15T03:49:03,42.805,6.029,0.021,0.0,-0.028,106.0,104.0,103.0,13.4,1505.2,323.9,-0.8,1.8,2470.768,13.29,0.021,90.0
2022-07-15T03:52:03,42.805,6.029,0.022,-0.008,-0.021,105.0,104.0,102.0,13.4,1505.2,325.3,-0.8,1.8,2470.787,13.29,0.023,110.0
2022-07-15T03:55:03,42.805,6.029,0.017,0.011,0.016,105.0,105.0,101.0,13.4,1505.2,331.6,-0.7,1.8,2470.748,13.29,0.02,57.1
2022-07-15T03:58:03,42.805,6.029,0.016,0.015,0.003,104.0,104.0,101.0,13.4,1505.2,330.1,-0.8,1.8,2470.761,13.29,0.021,46.9
2022-07-15T04:04:03,42.805,6.029,0.028,0.003,-0.023,105.0,104.0,102.0,13.3,1505.2,320.3,-0.8,1.8,2470.834,13.28,0.028,83.9
2022-07-15T04:07:03,42.805,6.029,0.011,0.009,0.008,106.0,104.0,102.0,13.4,1505.2,326.9,-0.7,1.8,2470.822,13.28,0.014,50.7
2022-07-15T04:10:03,42.805,6.029,0.025,0.008,0.008,106.0,106.0,102.0,13.3,1505.2,334.1,-0.8,1.8,2470.805,13.28,0.026,72.3
2022-07-15T04:13:03,42.805,6.029,0.004,-0.009,-0.037,104.0,106.0,102.0,13.4,1505.2,321.6,-0.8,1.8,2470.81,13.28,0.009,156.0
2022-07-15T04:16:03,42.805,6.029,0.02,0.009,-0.005,106.0,106.0,102.0,13.3,1505.2,319.8,-0.7,1.8,2470.801,13.29,0.021,65.8
2022-07-15T04:19:03,42.805,6.029,0.023,-0.015,-0.015,103.0,104.0,102.0,13.4,1505.2,329.2,-0.7,1.8,2470.777,13.29,0.027,123.1
2022-07-15T04:22:02,42.805,6.029,-0.003,0.028,0.034,103.0,103.0,102.0,13.4,1505.2,331.9,-0.7,1.8,2470.776,13.29,0.028,353.9
2022-07-15T04:25:03,42.805,6.029,0.023,0.001,-0.016,104.0,105.0,103.0,13.3,1505.2,328.4,-0.8,1.8,2470.795,13.29,0.023,87.5
2022-07-15T04:28:03,42.805,6.029,0.009,0.0,0.025,103.0,105.0,101.0,13.4,1505.2,327.5,-0.8,1.8,2470.788,13.29,0.009,90.0
2022-07-15T04:31:03,42.805,6.029,0.01,0.004,0.006,105.0,104.0,101.0,13.4,1505.2,326.6,-0.7,1.8,2470.766,13.29,0.01,68.2
2022-07-15T04:34:03,42.805,6.029,0.036,0.003,0.013,104.0,103.0,102.0,13.4,1505.2,328.2,-0.8,1.8,2470.811,13.29,0.036,85.2
2022-07-15T04:37:03,42.805,6.029,0.021,0.017,0.001,104.0,105.0,102.0,13.4,1505.2,319.5,-0.8,1.8,2470.796,13.29,0.027,51.0
2022-07-15T04:40:03,42.805,6.029,0.03,0.014,-0.014,105.0,104.0,102.0,13.4,1505.2,328.6,-0.7,1.8,2470.783,13.29,0.033,65.0
2022-07-15T04:43:03,42.805,6.029,0.023,0.011,-0.022,105.0,105.0,102.0,13.3,1505.2,324.6,-0.8,1.8,2470.787,13.29,0.025,64.4
2022-07-15T04:46:03,42.805,6.029,0.007,0.001,-0.016,105.0,103.0,102.0,13.4,1505.2,323.6,-0.7,1.8,2470.799,13.29,0.007,81.9
2022-07-15T04:49:03,42.805,6.029,0.025,0.005,-0.033,105.0,105.0,102.0,13.3,1505.2,322.4,-0.8,1.8,2470.793,13.29,0.025,78.7
2022-07-15T04:52:03,42.805,6.029,0.027,-0.012,-0.039,106.0,104.0,103.0,13.4,1505.2,324.8,-0.7,1.8,2470.82,13.29,0.029,114.0
2022-07-15T04:55:03,42.805,6.029,0.02,0.025,0.016,104.0,105.0,102.0,13.4,1505.2,327.5,-0.7,1.8,2470.834,13.29,0.032,38.7
2022-07-15T04:58:03,42.805,6.029,0.028,0.017,0.0,106.0,105.0,103.0,13.4,1505.2,321.2,-0.8,1.8,2470.76,13.29,0.032,58.7
2022-07-15T05:04:03,42.805,6.029,0.008,0.006,-0.013,104.0,105.0,101.0,13.4,1505.2,324.0,-0.8,1.8,2470.864,13.28,0.01,53.1
2022-07-15T05:07:03,42.805,6.029,0.043,0.009,0.017,105.0,105.0,104.0,13.4,1505.2,331.6,-0.7,1.8,2470.828,13.28,0.043,78.2
2022-07-15T05:10:03,42.805,6.029,0.023,0.012,0.01,106.0,104.0,103.0,13.3,1505.2,321.4,-0.8,1.8,2470.814,13.28,0.025,62.4
2022-07-15T05:13:03,42.805,6.029,0.034,0.006,-0.018,105.0,106.0,103.0,13.4,1505.2,330.1,-0.8,1.8,2470.872,13.28,0.034,80.0
2022-07-15T05:16:03,42.805,6.029,0.032,0.009,0.023,106.0,104.0,103.0,13.4,1505.2,324.0,-0.7,1.8,2470.849,13.28,0.033,74.3
2022-07-15T05:19:03,42.805,6.029,0.009,-0.008,0.003,105.0,106.0,102.0,13.4,1505.2,326.1,-0.7,1.9,2470.837,13.29,0.012,131.6
2022-07-15T05:22:03,42.805,6.029,0.018,0.003,-0.03,106.0,105.0,102.0,13.4,1505.2,321.4,-0.8,1.8,2470.841,13.29,0.018,80.5
2022-07-15T05:25:03,42.805,6.029,0.002,-0.006,-0.019,105.0,106.0,103.0,13.4,1505.2,327.9,-0.8,1.8,2470.827,13.29,0.006,161.6
2022-07-15T05:28:03,42.805,6.029,0.02,0.01,-0.033,105.0,104.0,101.0,13.3,1505.2,320.4,-0.8,1.8,2470.866,13.29,0.022,63.4
2022-07-15T05:31:03,42.805,6.029,0.008,-0.014,0.002,105.0,104.0,102.0,13.4,1505.2,324.3,-0.8,1.8,2470.841,13.29,0.016,150.3
2022-07-15T05:34:03,42.805,6.029,0.022,0.002,-0.002,105.0,105.0,103.0,13.4,1505.2,320.3,-0.7,1.8,2470.874,13.29,0.022,84.8
2022-07-15T05:37:03,42.805,6.029,0.006,0.003,-0.005,105.0,105.0,100.0,13.4,1505.2,327.6,-0.8,1.8,2470.829,13.29,0.006,63.4
2022-07-15T05:40:03,42.805,6.029,0.014,0.01,-0.011,104.0,104.0,102.0,13.3,1505.2,323.7,-0.7,1.8,2470.861,13.29,0.017,54.5
2022-07-15T05:43:03,42.805,6.029,0.023,0.013,-0.01,104.0,104.0,103.0,13.3,1505.2,324.5,-0.8,1.8,2470.856,13.29,0.026,60.5
2022-07-15T05:46:03,42.805,6.029,0.0,-0.004,-0.018,104.0,104.0,102.0,13.3,1505.2,330.0,-0.7,1.8,2470.873,13.29,0.004,180.0
2022-07-15T05:49:03,42.805,6.029,0.031,0.026,0.018,105.0,106.0,102.0,13.4,1505.2,319.7,-0.7,1.8,2470.869,13.29,0.04,50.0
2022-07-15T05:52:03,42.805,6.029,0.039,0.0,-0.006,106.0,105.0,101.0,13.4,1505.2,326.5,-0.7,1.8,2470.842,13.29,0.039,90.0
2022-07-15T05:55:03,42.805,6.029,0.006,0.01,-0.035,105.0,105.0,102.0,13.3,1505.2,319.0,-0.8,1.8,2470.861,13.29,0.011,31.0
2022-07-15T05:58:03,42.805,6.029,0.005,0.008,0.017,104.0,105.0,104.0,13.4,1505.2,323.1,-0.8,1.8,2470.86,13.29,0.009,32.0
2022-07-15T06:04:03,42.805,6.029,0.017,0.017,-0.02,105.0,105.0,103.0,13.4,1505.2,326.0,-0.8,1.9,2470.933,13.28,0.024,45.0
2022-07-15T06:07:03,42.805,6.029,0.029,-0.005,0.006,106.0,104.0,101.0,13.4,1505.2,327.6,-0.8,1.8,2470.908,13.28,0.029,99.8
2022-07-15T06:10:03,42.805,6.029,0.001,0.004,-0.008,105.0,105.0,102.0,13.4,1505.2,321.4,-0.8,1.8,2470.88,13.28,0.004,14.0
2022-07-15T06:13:03,42.805,6.029,0.006,-0.006,-0.017,106.0,104.0,103.0,13.3,1505.2,328.1,-0.7,1.8,2470.911,13.28,0.008,135.0
2022-07-15T06:16:03,42.805,6.029,0.012,0.007,0.005,105.0,106.0,102.0,13.4,1505.2,330.3,-0.7,1.8,2470.894,13.28,0.013,59.7
2022-07-15T06:19:03,42.805,6.029,0.032,-0.001,-0.007,105.0,105.0,102.0,13.4,1505.2,329.5,-0.7,1.9,2470.886,13.29,0.032,91.8
2022-07-15T06:22:03,42.805,6.029,0.003,0.013,0.009,106.0,107.0,102.0,13.4,1505.2,327.1,-0.8,1.8,2470.887,13.29,0.013,13.0
2022-07-15T06:25:03,42.805,6.029,0.017,0.008,0.0,105.0,106.0,104.0,13.3,1505.2,321.0,-0.8,1.8,2470.926,13.29,0.018,64.8
2022-07-15T06:28:03,42.805,6.029,0.0,0.005,0.001,105.0,105.0,102.0,13.3,1505.2,333.9,-0.7,1.8,2470.872,13.29,0.005,0.0
2022-07-15T06:31:03,42.805,6.029,0.016,-0.006,-0.037,105.0,106.0,103.0,13.3,1505.2,330.5,-0.8,1.9,2470.891,13.29,0.017,110.6
2022-07-15T06:34:03,42.805,6.029,0.009,0.007,0.0,106.0,104.0,104.0,13.4,1505.2,333.6,-0.7,1.8,2470.857,13.29,0.011,52.1
2022-07-15T06:37:03,42.805,6.029,0.024,0.003,-0.011,106.0,106.0,103.0,13.4,1505.2,324.6,-0.7,1.8,2470.933,13.29,0.024,82.9
2022-07-15T06:40:03,42.805,6.029,0.032,0.01,0.036,105.0,106.0,102.0,13.4,1505.2,323.6,-0.7,1.8,2470.892,13.29,0.033,72.6
2022-07-15T06:43:03,42.805,6.029,0.01,0.008,-0.016,106.0,105.0,102.0,13.3,1505.2,323.1,-0.8,1.8,2470.872,13.29,0.012,51.3
2022-07-15T06:46:03,42.805,6.029,0.013,0.003,-0.037,106.0,105.0,102.0,13.4,1505.2,321.9,-0.8,1.8,2470.872,13.29,0.013,77.0
2022-07-15T06:49:03,42.805,6.029,0.007,0.001,-0.002,105.0,106.0,102.0,13.4,1505.2,329.0,-0.8,1.8,2470.852,13.29,0.007,81.9
2022-07-15T06:52:03,42.805,6.029,0.028,-0.014,-0.02,105.0,105.0,103.0,13.4,1505.2,329.1,-0.7,1.8,2470.899,13.29,0.031,116.6
2022-07-15T06:55:03,42.805,6.029,0.025,0.014,0.004,106.0,105.0,102.0,13.4,1505.2,325.0,-0.8,1.8,2470.889,13.29,0.028,60.7
2022-07-15T06:58:03,42.805,6.029,0.009,0.007,-0.014,105.0,105.0,102.0,13.4,1505.2,325.0,-0.7,1.8,2470.929,13.29,0.011,52.1
2022-07-15T07:04:03,42.805,6.029,0.016,0.002,-0.001,107.0,105.0,103.0,13.4,1505.2,325.5,-0.8,1.8,2470.952,13.28,0.016,82.9
2022-07-15T07:07:03,42.805,6.029,0.018,-0.001,-0.018,106.0,104.0,103.0,13.3,1505.2,320.0,-0.8,1.8,2470.937,13.28,0.018,93.2
2022-07-15T07:10:03,42.805,6.029,0.016,0.0,-0.03,105.0,104.0,102.0,13.4,1505.2,326.3,-0.8,1.9,2470.916,13.28,0.016,90.0
2022-07-15T07:13:03,42.805,6.029,0.018,-0.003,0.005,104.0,106.0,103.0,13.4,1505.2,326.1,-0.7,1.8,2470.918,13.28,0.018,99.5
2022-07-15T07:16:03,42.805,6.029,0.022,-0.009,-0.009,106.0,105.0,102.0,13.4,1505.2,327.7,-0.8,1.8,2470.948,13.28,0.023,112.2
2022-07-15T07:19:03,42.805,6.029,0.004,-0.007,-0.022,106.0,105.0,103.0,13.4,1505.2,325.6,-0.7,1.8,2470.921,13.29,0.008,150.3
2022-07-15T07:22:03,42.805,6.029,0.007,0.018,-0.01,106.0,106.0,103.0,13.4,1505.2,320.0,-0.8,1.9,2470.919,13.29,0.019,21.2
2022-07-15T07:25:03,42.805,6.029,0.024,0.008,-0.004,105.0,106.0,104.0,13.4,1505.2,330.1,-0.7,1.8,2470.946,13.29,0.025,71.6
2022-07-15T07:28:03,42.805,6.029,0.028,-0.001,-0.001,105.0,106.0,102.0,13.4,1505.2,325.0,-0.7,1.8,2470.914,13.29,0.028,92.0
2022-07-15T07:31:03,42.805,6.029,0.036,-0.009,0.015,106.0,105.0,104.0,13.4,1505.2,322.4,-0.8,1.9,2470.934,13.29,0.037,104.0
2022-07-15T07:34:03,42.805,6.029,0.019,0.012,-0.027,105.0,104.0,103.0,13.4,1505.2,334.1,-0.7,1.8,2470.924,13.29,0.022,57.7
2022-07-15T07:37:03,42.805,6.029,0.013,0.009,0.039,105.0,105.0,104.0,13.4,1505.2,320.8,-0.8,1.8,2470.911,13.29,0.015,55.3
2022-07-15T07:40:03,42.805,6.029,0.025,-0.005,-0.017,105.0,104.0,104.0,13.4,1505.2,322.6,-0.8,1.8,2470.894,13.29,0.025,101.3
2022-07-15T07:43:03,42.805,6.029,0.041,0.007,0.038,106.0,104.0,102.0,13.3,1505.2,322.2,-0.8,1.8,2470.916,13.29,0.041,80.3
2022-07-15T07:46:03,42.805,6.029,0.023,-0.007,0.003,105.0,105.0,103.0,13.3,1505.2,325.1,-0.7,1.8,2470.927,13.29,0.024,106.9
2022-07-15T07:49:03,42.805,6.029,0.019,-0.005,-0.03,105.0,105.0,103.0,13.3,1505.2,328.2,-0.7,1.8,2470.877,13.29,0.019,104.7
2022-07-15T07:52:03,42.805,6.029,0.019,-0.005,-0.014,104.0,106.0,102.0,13.4,1505.2,325.4,-0.8,1.8,2470.884,13.29,0.019,104.7
2022-07-15T07:55:03,42.805,6.029,0.021,0.008,-0.007,105.0,106.0,102.0,13.4,1505.2,321.4,-0.7,1.8,2470.918,13.29,0.022,69.1
2022-07-15T07:58:03,42.805,6.029,0.023,0.002,0.008,105.0,105.0,103.0,13.4,1505.2,329.7,-0.7,1.8,2470.904,13.29,0.023,85.0
2022-07-15T08:04:03,42.805,6.029,0.026,0.004,0.008,106.0,105.0,102.0,13.3,1505.2,327.5,-0.7,1.8,2470.967,13.28,0.026,81.3
2022-07-15T08:07:03,42.805,6.029,0.005,0.009,-0.008,105.0,104.0,102.0,13.4,1505.2,322.4,-0.7,1.8,2470.956,13.28,0.01,29.1
2022-07-15T08:10:03,42.805,6.029,0.007,0.016,0.007,104.0,105.0,104.0,13.4,1505.2,322.1,-0.7,1.9,2470.977,13.28,0.017,23.6
2022-07-15T08:13:03,42.805,6.029,0.027,0.012,-0.005,104.0,104.0,102.0,13.4,1505.2,328.2,-0.8,1.8,2470.926,13.28,0.029,66.0
2022-07-15T08:16:03,42.805,6.029,0.027,0.011,-0.017,104.0,104.0,102.0,13.4,1505.2,325.4,-0.8,1.8,2470.924,13.28,0.029,67.8
2022-07-15T08:19:03,42.805,6.029,0.008,0.017,-0.021,103.0,104.0,102.0,13.4,1505.2,330.8,-0.7,1.8,2470.926,13.29,0.018,25.2
2022-07-15T08:22:03,42.805,6.029,0.01,-0.001,-0.003,104.0,105.0,101.0,13.3,1505.2,331.9,-0.7,1.8,2470.919,13.29,0.01,95.7
2022-07-15T08:25:03,42.805,6.029,0.029,-0.014,-0.02,105.0,103.0,102.0,13.4,1505.2,330.3,-0.8,1.8,2470.893,13.29,0.032,115.8
2022-07-15T08:28:03,42.805,6.029,0.017,0.003,0.01,105.0,103.0,102.0,13.4,1505.2,323.7,-0.7,1.8,2470.893,13.29,0.017,80.0
2022-07-15T08:31:03,42.805,6.029,0.005,-0.012,0.001,104.0,105.0,102.0,13.4,1505.2,329.4,-0.7,1.8,2470.87,13.29,0.013,157.4
2022-07-15T08:34:03,42.805,6.029,0.006,0.017,-0.004,104.0,103.0,102.0,13.4,1505.2,325.8,-0.8,1.8,2470.923,13.29,0.018,19.4
2022-07-15T08:37:03,42.805,6.029,0.021,0.005,-0.004,104.0,105.0,102.0,13.3,1505.2,323.9,-0.8,1.8,2470.933,13.29,0.021,76.6
2022-07-15T08:40:03,42.805,6.029,0.005,0.002,-0.009,102.0,104.0,102.0,13.3,1505.2,325.9,-0.7,1.8,2470.893,13.29,0.005,68.2
2022-07-15T08:43:03,42.805,6.029,-0.005,-0.003,-0.039,105.0,103.0,102.0,13.4,1505.2,329.5,-0.7,1.8,2470.888,13.29,0.005,239.0
2022-07-15T08:46:03,42.805,6.029,0.03,0.0,-0.02,102.0,104.0,101.0,13.3,1505.2,327.9,-0.8,1.8,2470.93,13.29,0.03,90.0
2022-07-15T08:49:03,42.805,6.029,0.016,0.009,-0.023,106.0,102.0,102.0,13.4,1505.2,324.1,-0.8,1.8,2470.903,13.29,0.018,60.6
2022-07-15T08:52:03,42.805,6.029,0.015,-0.007,0.009,102.0,104.0,102.0,13.4,1505.2,326.7,-0.8,1.8,2470.898,13.29,0.016,115.0
2022-07-15T08:55:03,42.805,6.029,0.024,-0.001,0.031,103.0,105.0,101.0,13.4,1505.2,324.2,-0.8,1.8,2470.926,13.29,0.024,92.4
2022-07-15T08:58:03,42.805,6.029,0.031,0.025,0.002,103.0,103.0,102.0,13.4,1505.2,324.6,-0.8,1.8,2470.898,13.29,0.039,51.1
2022-07-15T09:04:03,42.805,6.029,0.029,0.014,-0.009,103.0,103.0,101.0,13.4,1505.2,322.0,-0.8,1.8,2470.937,13.28,0.032,64.2
2022-07-15T09:07:03,42.805,6.029,0.02,0.0,0.0,104.0,103.0,101.0,13.4,1505.2,318.5,-0.8,1.8,2470.916,13.28,0.02,90.0
2022-07-15T09:10:03,42.805,6.029,0.03,-0.003,-0.007,105.0,103.0,100.0,13.4,1505.2,333.4,-0.8,1.8,2470.941,13.28,0.03,95.7
2022-07-15T09:13:03,42.805,6.029,0.02,0.007,-0.005,103.0,104.0,101.0,13.3,1505.2,321.1,-0.8,1.8,2470.917,13.28,0.021,70.7
2022-07-15T09:16:03,42.805,6.029,0.012,-0.002,-0.001,103.0,103.0,101.0,13.3,1505.2,332.9,-0.8,1.8,2470.915,13.29,0.012,99.5
2022-07-15T09:19:03,42.805,6.029,0.021,0.007,-0.019,103.0,104.0,100.0,13.4,1505.2,318.4,-0.8,1.8,2470.892,13.29,0.022,71.6
2022-07-15T09:22:03,42.805,6.029,0.02,0.015,-0.005,103.0,103.0,101.0,13.4,1505.2,328.5,-0.8,1.8,2470.875,13.29,0.025,53.1
2022-07-15T09:25:03,42.805,6.029,-0.003,-0.002,0.004,103.0,103.0,101.0,13.3,1505.2,323.5,-0.8,1.8,2470.918,13.29,0.003,236.3
2022-07-15T09:28:03,42.805,6.029,0.009,0.003,0.021,105.0,103.0,101.0,13.4,1505.2,322.0,-0.8,1.8,2470.883,13.29,0.009,71.6
2022-07-15T09:31:03,42.805,6.029,0.002,0.008,-0.024,103.0,104.0,101.0,13.4,1505.2,326.6,-0.8,1.8,2470.904,13.29,0.008,14.0
2022-07-15T09:34:03,42.805,6.029,0.008,0.003,-0.002,104.0,102.0,101.0,13.4,1505.2,328.1,-0.7,1.8,2470.89,13.29,0.008,69.4
2022-07-15T09:37:03,42.805,6.029,0.011,0.004,-0.001,103.0,104.0,100.0,13.4,1505.2,319.8,-0.8,1.8,2470.882,13.29,0.011,70.0
2022-07-15T09:40:03,42.805,6.029,0.008,0.031,-0.005,103.0,104.0,101.0,13.4,1505.2,328.1,-0.8,1.8,2470.88,13.29,0.032,14.5
2022-07-15T09:43:03,42.805,6.029,0.007,0.0,0.008,104.0,104.0,101.0,13.3,1505.2,333.1,-0.8,1.8,2470.92,13.29,0.007,90.0
2022-07-15T09:46:03,42.805,6.029,0.016,0.014,-0.017,104.0,103.0,101.0,13.4,1505.2,325.5,-0.7,1.8,2470.881,13.29,0.021,48.8
2022-07-15T09:49:03,42.805,6.029,0.009,0.001,-0.032,103.0,103.0,101.0,13.4,1505.2,328.9,-0.7,1.8,2470.865,13.29,0.009,83.7
2022-07-15T09:52:03,42.805,6.029,-0.002,0.016,-0.004,104.0,105.0,100.0,13.4,1505.2,323.1,-0.8,1.8,2470.894,13.29,0.016,352.9
2022-07-15T09:55:03,42.805,6.029,0.009,0.005,0.0,102.0,105.0,101.0,13.3,1505.2,328.7,-0.7,1.8,2470.865,13.29,0.01,60.9
2022-07-15T09:58:03,42.805,6.029,0.024,0.0,0.014,104.0,101.0,101.0,13.4,1505.2,319.7,-0.8,1.8,2470.864,13.29,0.024,90.0